Location: Unspecified
(0.0000°N, 0.0000°E)
Time: 11:07:31
(UTC+00:00)

RS-15 - Visible Passes

Search period start: 15 December 2019 00:00
Search period end: 25 December 2019 00:00
Orbit: 1900 x 2145 km, 64.8° (Epoch: 14 December)

Date Brightness Start Highest point End Pass type
(mag) Time Alt. Az. Time Alt. Az. Time Alt. Az.
15 Dec 10.8 04:41:32 10° SSE 04:47:50 16° ESE 04:53:56 10° E visible
15 Dec 8.1 18:29:30 10° NNW 18:40:57 88° ENE 18:52:59 10° SSE visible
15 Dec 10.4 20:48:34 10° W 20:53:27 13° WSW 20:58:26 10° SW visible
16 Dec 10.1 20:09:07 10° WNW 20:17:13 22° WSW 20:25:37 10° SSW visible
17 Dec 9.6 19:31:19 10° NW 19:41:04 33° WSW 19:51:19 10° S visible
18 Dec 9.6 05:01:39 10° S 05:12:14 39° ESE 05:22:19 10° NE visible
18 Dec 9.2 18:54:16 10° NW 19:05:01 47° WSW 19:16:20 10° S visible
19 Dec 10.0 04:26:57 10° SSE 04:36:09 27° ESE 04:44:57 10° ENE visible
19 Dec 8.6 18:17:44 10° NNW 18:29:01 65° WSW 18:40:54 10° S visible
20 Dec 10.4 03:53:11 10° SSE 03:59:59 17° ESE 04:06:33 10° ENE visible
20 Dec 10.7 20:01:33 10° W 20:05:36 12° WSW 20:09:45 10° SW visible
21 Dec 8.3 05:24:35 10° SSW 05:36:20 81° ESE 05:47:30 10° NNE visible
21 Dec 10.4 19:21:35 10° WNW 19:29:22 20° WSW 19:37:25 10° SSW visible
22 Dec 8.7 04:48:54 10° S 05:00:22 58° ESE 05:11:15 10° NE visible
22 Dec 10.0 18:43:38 10° NW 18:53:13 31° WSW 19:03:14 10° S visible
23 Dec 9.2 04:13:38 10° S 04:24:21 41° ESE 04:34:33 10° NE visible
23 Dec 9.5 18:06:30 10° NW 18:17:08 44° WSW 18:28:20 10° S visible
24 Dec 9.7 03:38:50 10° SSE 03:48:17 28° ESE 03:57:18 10° ENE visible
